| time (UTC) | temp F | wind direction | speed knots | gust knots | rain 1hr in | rain 24hr in | rain mn in | humidity % | barometer mb |
| 20260506022904 | 53 | 226 | 1.7 | 4.3 | 0.00 | 0.02 | 0.00 | 81 | 937.5 |
| 20260506022404 | 53 | 226 | 1.7 | 4.3 | 0.00 | 0.02 | 0.00 | 81 | 937.6 |
| 20260506021903 | 53 | 225 | 1.7 | 2.6 | 0.00 | 0.02 | 0.00 | 81 | 937.6 |
| 20260506021404 | 53 | 224 | 1.7 | 2.6 | 0.00 | 0.02 | 0.00 | 81 | 937.6 |
| 20260506020403 | 53 | 271 | 0.0 | 1.7 | 0.00 | 0.02 | 0.00 | 80 | 937.6 |
| 20260506015903 | 53 | 274 | 0.0 | 0.0 | 0.00 | 0.02 | 0.00 | 80 | 937.6 |
| 20260506015404 | 53 | 275 | 0.0 | 1.7 | 0.00 | 0.02 | 0.00 | 80 | 937.8 |
| 20260506014903 | 53 | 275 | 1.7 | 4.3 | 0.00 | 0.02 | 0.00 | 80 | 937.8 |
| 20260506013903 | 53 | 274 | 1.7 | 4.3 | 0.00 | 0.02 | 0.00 | 79 | 937.9 |
| 20260506013404 | 53 | 210 | 1.7 | 4.3 | 0.00 | 0.02 | 0.00 | 80 | 937.9 |
| 20260506012904 | 53 | 208 | 1.7 | 4.3 | 0.00 | 0.02 | 0.00 | 80 | 937.9 |
| 20260506012404 | 53 | 153 | 1.7 | 4.3 | 0.00 | 0.02 | 0.00 | 80 | 938.0 |
| 20260506011904 | 53 | 115 | 0.9 | 4.3 | 0.00 | 0.02 | 0.00 | 80 | 938.0 |
| 20260506011403 | 53 | 111 | 0.9 | 4.3 | 0.00 | 0.02 | 0.00 | 79 | 938.0 |
| 20260506010903 | 53 | 188 | 0.9 | 1.7 | 0.00 | 0.02 | 0.00 | 79 | 938.0 |
| 20260506010403 | 53 | 201 | 0.9 | 2.6 | 0.00 | 0.02 | 0.00 | 79 | 938.0 |
| 20260506005903 | 53 | 201 | 2.6 | 5.2 | 0.00 | 0.02 | 0.00 | 78 | 938.0 |
| 20260506005403 | 53 | 201 | 2.6 | 5.2 | 0.00 | 0.02 | 0.00 | 78 | 938.1 |
| 20260506004904 | 53 | 207 | 1.7 | 5.2 | 0.00 | 0.02 | 0.00 | 79 | 938.1 |
| 20260506004404 | 53 | 208 | 1.7 | 2.6 | 0.00 | 0.02 | 0.00 | 79 | 938.1 |
| 20260506003904 | 53 | 210 | 1.7 | 2.6 | 0.00 | 0.02 | 0.00 | 79 | 938.2 |
| 20260506003404 | 53 | 211 | 1.7 | 2.6 | 0.00 | 0.02 | 0.00 | 79 | 938.2 |
| 20260506002904 | 53 | 207 | 2.6 | 4.3 | 0.00 | 0.02 | 0.00 | 78 | 938.2 |
| 20260506002403 | 53 | 206 | 2.6 | 4.3 | 0.00 | 0.02 | 0.00 | 78 | 938.5 |
| 20260506001903 | 53 | 208 | 2.6 | 4.3 | 0.00 | 0.02 | 0.00 | 78 | 938.5 |
| 20260506001404 | 53 | 191 | 2.6 | 4.3 | 0.00 | 0.02 | 0.00 | 77 | 938.5 |
| 20260506000903 | 54 | 133 | 1.7 | 5.2 | 0.00 | 0.02 | 0.00 | 77 | 938.7 |
| 20260506000403 | 54 | 182 | 1.7 | 5.2 | 0.00 | 0.02 | 0.00 | 77 | 938.7 |
| 20260505235904 | 54 | 208 | 1.7 | 5.2 | 0.00 | 0.02 | 0.00 | 77 | 938.7 |
| 20260505234904 | 54 | 97 | 1.7 | 4.3 | 0.00 | 0.02 | 0.00 | 76 | 938.5 |
| 20260505234403 | 54 | 212 | 1.7 | 4.3 | 0.00 | 0.02 | 0.00 | 75 | 938.5 |
| 20260505233903 | 54 | 203 | 1.7 | 4.3 | 0.00 | 0.02 | 0.00 | 75 | 938.7 |
| 20260505233404 | 54 | 212 | 1.7 | 4.3 | 0.00 | 0.02 | 0.00 | 75 | 938.7 |
| 20260505232903 | 54 | 186 | 1.7 | 2.6 | 0.00 | 0.02 | 0.00 | 75 | 938.7 |
| 20260505232404 | 54 | 146 | 1.7 | 4.3 | 0.00 | 0.02 | 0.00 | 75 | 938.7 |
| 20260505231403 | 54 | 201 | 4.3 | 5.2 | 0.00 | 0.02 | 0.00 | 76 | 938.7 |
| 20260505230904 | 54 | 229 | 1.7 | 6.1 | 0.00 | 0.02 | 0.00 | 76 | 938.8 |
| 20260505230405 | 54 | 227 | 1.7 | 6.1 | 0.00 | 0.02 | 0.00 | 76 | 938.8 |
| 20260505225903 | 54 | 216 | 3.5 | 4.3 | 0.00 | 0.02 | 0.00 | 77 | 938.8 |
| 20260505225404 | 54 | 116 | 4.3 | 4.3 | 0.00 | 0.02 | 0.00 | 77 | 938.8 |
| 20260505224903 | 54 | 170 | 4.3 | 6.1 | 0.00 | 0.02 | 0.00 | 76 | 938.8 |
| 20260505224404 | 54 | 211 | 4.3 | 6.1 | 0.00 | 0.02 | 0.00 | 77 | 938.8 |
| 20260505223404 | 54 | 211 | 2.6 | 4.3 | 0.00 | 0.02 | 0.00 | 77 | 938.8 |
| 20260505222904 | 54 | 210 | 4.3 | 5.2 | 0.00 | 0.02 | 0.00 | 77 | 938.8 |
| 20260505221403 | 55 | 212 | 2.6 | 5.2 | 0.00 | 0.02 | 0.00 | 77 | 938.9 |
| 20260505220903 | 55 | 194 | 2.6 | 5.2 | 0.00 | 0.02 | 0.00 | 77 | 939.0 |
| 20260505220403 | 54 | 189 | 2.6 | 5.2 | 0.00 | 0.02 | 0.00 | 77 | 939.0 |
| 20260505215903 | 55 | 211 | 4.3 | 4.3 | 0.00 | 0.02 | 0.02 | 77 | 939.0 |
| 20260505215404 | 55 | 212 | 4.3 | 5.2 | 0.00 | 0.02 | 0.02 | 77 | 939.2 |
| 20260505214904 | 55 | 221 | 4.3 | 6.1 | 0.00 | 0.02 | 0.02 | 77 | 939.2 |
| 20260505214403 | 55 | 203 | 4.3 | 6.1 | 0.00 | 0.02 | 0.02 | 77 | 939.2 |
| 20260505212904 | 55 | 211 | 1.7 | 4.3 | 0.00 | 0.02 | 0.02 | 76 | 939.3 |
| 20260505212403 | 55 | 223 | 1.7 | 4.3 | 0.00 | 0.02 | 0.02 | 76 | 939.5 |
| 20260505211404 | 55 | 226 | 0.9 | 2.6 | 0.00 | 0.02 | 0.02 | 77 | 939.5 |
| 20260505210903 | 55 | 217 | 0.9 | 2.6 | 0.00 | 0.02 | 0.02 | 76 | 939.4 |
| 20260505205904 | 55 | 249 | 1.7 | 2.6 | 0.00 | 0.02 | 0.02 | 76 | 939.4 |
| 20260505204904 | 55 | 224 | 4.3 | 5.2 | 0.00 | 0.02 | 0.02 | 75 | 939.4 |
| 20260505203903 | 54 | 225 | 5.2 | 6.1 | 0.00 | 0.02 | 0.02 | 77 | 939.4 |
| 20260505203403 | 54 | 219 | 5.2 | 7.0 | 0.00 | 0.02 | 0.02 | 77 | 939.4 |
| 20260505202904 | 54 | 226 | 5.2 | 7.0 | 0.00 | 0.02 | 0.02 | 77 | 939.4 |
| 20260505202403 | 54 | 224 | 5.2 | 6.1 | 0.00 | 0.02 | 0.02 | 78 | 939.3 |
| 20260505201904 | 55 | 221 | 5.2 | 7.0 | 0.00 | 0.02 | 0.02 | 78 | 939.3 |
| 20260505201403 | 55 | 224 | 5.2 | 7.8 | 0.00 | 0.02 | 0.02 | 77 | 939.3 |
| 20260505200904 | 54 | 219 | 5.2 | 7.8 | 0.00 | 0.02 | 0.02 | 77 | 939.1 |
| 20260505200404 | 54 | 214 | 5.2 | 7.8 | 0.00 | 0.02 | 0.02 | 77 | 939.1 |
| 20260505195904 | 54 | 219 | 4.3 | 7.0 | 0.00 | 0.02 | 0.02 | 78 | 939.1 |
| 20260505195404 | 54 | 221 | 4.3 | 7.0 | 0.00 | 0.02 | 0.02 | 78 | 939.0 |
| 20260505194403 | 54 | 207 | 5.2 | 7.0 | 0.00 | 0.02 | 0.02 | 78 | 939.0 |
| 20260505193904 | 54 | 212 | 5.2 | 7.0 | 0.00 | 0.02 | 0.02 | 78 | 939.0 |
| 20260505193403 | 54 | 217 | 6.1 | 7.8 | 0.00 | 0.02 | 0.02 | 79 | 939.0 |
| 20260505192903 | 54 | 222 | 6.1 | 8.7 | 0.00 | 0.02 | 0.02 | 78 | 939.0 |
| 20260505192404 | 54 | 216 | 6.1 | 8.7 | 0.00 | 0.02 | 0.02 | 79 | 938.8 |
| 20260505191904 | 54 | 220 | 6.1 | 10.4 | 0.00 | 0.02 | 0.02 | 79 | 938.8 |
| 20260505190904 | 54 | 215 | 5.2 | 10.4 | 0.00 | 0.02 | 0.02 | 80 | 938.6 |
| 20260505190403 | 54 | 220 | 5.2 | 6.1 | 0.00 | 0.02 | 0.02 | 81 | 938.6 |
| 20260505185903 | 54 | 215 | 5.2 | 6.1 | 0.00 | 0.02 | 0.02 | 82 | 938.6 |
| 20260505185404 | 54 | 220 | 5.2 | 6.1 | 0.00 | 0.02 | 0.02 | 82 | 938.5 |
| 20260505184903 | 54 | 222 | 5.2 | 7.0 | 0.00 | 0.02 | 0.02 | 83 | 938.5 |
| 20260505184404 | 54 | 216 | 5.2 | 7.8 | 0.00 | 0.02 | 0.02 | 83 | 938.5 |
| 20260505183904 | 55 | 224 | 4.3 | 7.8 | 0.00 | 0.02 | 0.02 | 83 | 938.8 |
| 20260505183403 | 54 | 205 | 4.3 | 7.8 | 0.00 | 0.02 | 0.02 | 83 | 938.8 |
| 20260505182904 | 54 | 221 | 5.2 | 6.1 | 0.00 | 0.02 | 0.02 | 83 | 938.8 |
| 20260505182403 | 54 | 225 | 6.1 | 8.7 | 0.00 | 0.02 | 0.02 | 83 | 938.6 |
| 20260505181903 | 54 | 229 | 5.2 | 10.4 | 0.00 | 0.02 | 0.02 | 83 | 938.6 |
| 20260505181404 | 54 | 223 | 5.2 | 10.4 | 0.00 | 0.02 | 0.02 | 83 | 938.6 |
| 20260505180903 | 54 | 213 | 5.2 | 8.7 | 0.00 | 0.02 | 0.02 | 84 | 938.7 |
| 20260505180404 | 54 | 213 | 6.1 | 7.8 | 0.00 | 0.02 | 0.02 | 84 | 938.7 |
| 20260505175904 | 54 | 235 | 6.1 | 8.7 | 0.00 | 0.02 | 0.02 | 84 | 938.7 |
| 20260505175403 | 54 | 224 | 6.1 | 8.7 | 0.02 | 0.02 | 0.02 | 84 | 938.7 |
| 20260505174904 | 54 | 227 | 5.2 | 8.7 | 0.02 | 0.02 | 0.02 | 85 | 938.7 |
| 20260505173903 | 55 | 258 | 5.2 | 8.7 | 0.02 | 0.02 | 0.02 | 86 | 938.7 |
| 20260505173404 | 55 | 226 | 6.1 | 7.8 | 0.02 | 0.02 | 0.02 | 85 | 938.7 |
| 20260505172403 | 55 | 226 | 6.1 | 7.8 | 0.02 | 0.02 | 0.02 | 85 | 938.6 |
| 20260505171403 | 55 | 226 | 7.0 | 10.4 | 0.02 | 0.02 | 0.02 | 83 | 938.6 |
| 20260505170904 | 55 | 242 | 7.0 | 11.3 | 0.02 | 0.02 | 0.02 | 83 | 938.1 |
| 20260505170405 | 56 | 227 | 7.0 | 11.3 | 0.02 | 0.02 | 0.02 | 81 | 938.1 |
| 20260505165904 | 56 | 259 | 7.8 | 13.9 | 0.02 | 0.02 | 0.02 | 80 | 938.1 |
| 20260505164904 | 57 | 251 | 11.3 | 13.9 | 0.00 | 0.00 | 0.00 | 76 | 938.6 |
| 20260505164404 | 57 | 256 | 15.6 | 15.6 | 0.00 | 0.00 | 0.00 | 75 | 938.6 |
| 20260505163903 | 57 | 257 | 18.2 | 40.0 | 0.00 | 0.00 | 0.00 | 74 | 938.3 |
| 20260505163404 | 58 | 231 | 27.8 | 40.0 | 0.00 | 0.00 | 0.00 | 73 | 938.3 |
| 20260505162904 | 58 | 256 | 27.8 | 40.0 | 0.00 | 0.00 | 0.00 | 72 | 938.3 |
| 20260505162404 | 59 | 238 | 26.1 | 46.9 | 0.00 | 0.00 | 0.00 | 72 | 938.2 |
| 20260505161403 | 60 | 260 | 22.6 | 38.2 | 0.00 | 0.00 | 0.00 | 71 | 938.2 |
| 20260505160904 | 60 | 253 | 20.9 | 38.2 | 0.00 | 0.00 | 0.00 | 71 | 937.9 |
| 20260505160404 | 61 | 253 | 12.2 | 38.2 | 0.00 | 0.00 | 0.00 | 69 | 937.9 |
| 20260505151903 | 63 | 247 | 13.0 | 32.2 | 0.00 | 0.00 | 0.00 | 65 | 937.7 |
| 20260505151404 | 64 | 261 | 7.0 | 32.2 | 0.00 | 0.00 | 0.00 | 63 | 937.7 |
| 20260505150904 | 65 | 253 | 7.0 | 18.2 | 0.00 | 0.00 | 0.00 | 62 | 937.7 |
| 20260505124903 | 63 | 67 | 1.7 | 8.7 | 0.00 | 0.00 | 0.00 | 71 | 938.0 |
| 20260505124404 | 63 | 103 | 2.6 | 1.7 | 0.00 | 0.00 | 0.00 | 71 | 938.0 |
| 20260505123903 | 63 | 230 | 2.6 | 5.2 | 0.00 | 0.00 | 0.00 | 68 | 938.1 |
| 20260505123404 | 63 | 230 | 2.6 | 5.2 | 0.00 | 0.00 | 0.00 | 67 | 938.1 |
| 20260505122904 | 63 | 253 | 2.6 | 5.2 | 0.00 | 0.00 | 0.00 | 66 | 938.1 |
| 20260505122403 | 63 | 355 | 2.6 | 5.2 | 0.00 | 0.00 | 0.00 | 71 | 938.1 |
| 20260505121903 | 63 | 259 | 2.6 | 4.3 | 0.00 | 0.00 | 0.00 | 68 | 938.1 |
| 20260505121404 | 63 | 257 | 4.3 | 8.7 | 0.00 | 0.00 | 0.00 | 69 | 938.1 |
| 20260505120903 | 63 | 325 | 4.3 | 8.7 | 0.00 | 0.00 | 0.00 | 72 | 938.0 |
| 20260505120404 | 63 | 257 | 0.9 | 8.7 | 0.00 | 0.00 | 0.00 | 73 | 938.0 |
| 20260505115903 | 62 | 294 | 0.9 | 5.2 | 0.00 | 0.00 | 0.00 | 75 | 938.0 |
| 20260505115404 | 62 | 281 | 0.0 | 1.7 | 0.00 | 0.00 | 0.00 | 77 | 938.2 |
| 20260505114903 | 61 | 244 | 0.0 | 0.9 | 0.00 | 0.00 | 0.00 | 79 | 938.2 |
| 20260505114404 | 60 | 247 | 0.0 | 0.9 | 0.00 | 0.00 | 0.00 | 82 | 938.2 |
| 20260505113404 | 58 | 232 | 4.3 | 7.0 | 0.00 | 0.00 | 0.00 | 87 | 938.2 |
| 20260505112903 | 57 | 232 | 4.3 | 18.2 | 0.00 | 0.00 | 0.00 | 87 | 938.2 |
| 20260505112403 | 57 | 247 | 4.3 | 18.2 | 0.00 | 0.00 | 0.00 | 86 | 938.4 |
| 20260505111903 | 56 | 245 | 4.3 | 18.2 | 0.00 | 0.00 | 0.00 | 86 | 938.4 |
| 20260505111404 | 56 | 268 | 1.7 | 8.7 | 0.00 | 0.00 | 0.00 | 86 | 938.4 |
| 20260505110903 | 56 | 250 | 1.7 | 24.3 | 0.00 | 0.00 | 0.00 | 85 | 938.4 |
| 20260505101903 | 56 | 99 | 0.0 | 0.0 | 0.00 | 0.00 | 0.00 | 88 | 938.4 |
| 20260505100903 | 55 | 99 | 0.0 | 0.0 | 0.00 | 0.00 | 0.00 | 88 | 938.5 |
| 20260505100403 | 55 | 99 | 0.0 | 0.0 | 0.00 | 0.00 | 0.00 | 89 | 938.5 |
| 20260505095903 | 55 | 99 | 0.0 | 0.0 | 0.00 | 0.00 | 0.00 | 89 | 938.5 |
| 20260505095403 | 55 | 99 | 0.0 | 0.0 | 0.00 | 0.00 | 0.00 | 89 | 938.5 |
| 20260505094903 | 55 | 99 | 0.0 | 0.0 | 0.00 | 0.00 | 0.00 | 89 | 938.5 |
| 20260505094403 | 55 | 100 | 0.0 | 0.0 | 0.00 | 0.00 | 0.00 | 89 | 938.5 |
| 20260505093903 | 54 | 99 | 0.0 | 0.0 | 0.00 | 0.00 | 0.00 | 89 | 938.4 |
| 20260505093404 | 54 | 99 | 0.0 | 0.0 | 0.00 | 0.00 | 0.00 | 90 | 938.4 |
| 20260505092904 | 54 | 98 | 0.0 | 0.0 | 0.00 | 0.00 | 0.00 | 90 | 938.4 |
| 20260505092403 | 54 | 99 | 0.0 | 0.0 | 0.00 | 0.00 | 0.00 | 90 | 938.6 |
| 20260505091903 | 54 | 98 | 0.0 | 0.0 | 0.00 | 0.00 | 0.00 | 90 | 938.6 |
| 20260505090903 | 54 | 97 | 0.0 | 0.0 | 0.00 | 0.00 | 0.00 | 91 | 938.6 |
| 20260505090404 | 54 | 95 | 0.0 | 0.0 | 0.00 | 0.00 | 0.00 | 90 | 938.6 |
| 20260505085904 | 53 | 95 | 0.0 | 0.0 | 0.00 | 0.00 | 0.00 | 90 | 938.6 |
| 20260505085404 | 53 | 95 | 0.0 | 0.0 | 0.00 | 0.00 | 0.00 | 90 | 938.7 |
| 20260505084904 | 53 | 95 | 0.0 | 0.0 | 0.00 | 0.00 | 0.00 | 89 | 938.7 |
| 20260505083904 | 53 | 95 | 0.0 | 0.0 | 0.00 | 0.00 | 0.00 | 89 | 938.7 |
| 20260505083404 | 53 | 94 | 0.0 | 0.0 | 0.00 | 0.00 | 0.00 | 89 | 938.7 |
| 20260505082904 | 53 | 94 | 0.0 | 0.0 | 0.00 | 0.00 | 0.00 | 89 | 938.7 |
| 20260505081904 | 53 | 94 | 0.0 | 0.0 | 0.00 | 0.00 | 0.00 | 89 | 938.9 |
| 20260505080903 | 53 | 95 | 0.0 | 0.0 | 0.00 | 0.00 | 0.00 | 88 | 939.0 |
| 20260505080403 | 53 | 94 | 0.0 | 0.0 | 0.00 | 0.00 | 0.00 | 88 | 939.0 |
| 20260505075904 | 54 | 94 | 0.0 | 0.0 | 0.00 | 0.00 | 0.00 | 88 | 939.0 |
| 20260505075404 | 54 | 93 | 0.0 | 0.0 | 0.00 | 0.00 | 0.00 | 88 | 939.0 |
| 20260505073904 | 54 | 96 | 0.0 | 0.0 | 0.00 | 0.00 | 0.00 | 88 | 939.2 |
| 20260505073404 | 54 | 306 | 0.0 | 0.0 | 0.00 | 0.00 | 0.00 | 88 | 939.2 |
| 20260505072905 | 54 | 278 | 0.0 | 0.0 | 0.00 | 0.00 | 0.00 | 88 | 939.2 |
| 20260505072404 | 54 | 278 | 0.0 | 0.0 | 0.00 | 0.00 | 0.00 | 89 | 939.3 |
| 20260505071904 | 53 | 278 | 0.0 | 0.0 | 0.00 | 0.00 | 0.00 | 88 | 939.3 |
| 20260505071405 | 53 | 279 | 1.7 | 0.0 | 0.00 | 0.00 | 0.00 | 88 | 939.3 |
| 20260505070905 | 53 | 281 | 1.7 | 0.0 | 0.00 | 0.00 | 0.00 | 89 | 939.3 |
| 20260505070405 | 53 | 282 | 25.2 | 44.3 | 0.00 | 0.00 | 0.00 | 88 | 939.3 |
| 20260505065905 | 53 | 66 | 25.2 | 44.3 | 0.00 | 0.00 | 0.00 | 89 | 939.3 |
| 20260505065411 | 53 | 124 | 0.0 | 1.7 | 0.00 | 0.00 | 0.00 | 89 | 939.4 |
| 20260505064910 | 53 | 124 | 0.0 | 0.0 | 0.00 | 0.00 | 0.00 | 89 | 939.4 |
| 20260505064409 | 53 | 124 | 0.0 | 0.0 | 0.00 | 0.00 | 0.00 | 89 | 939.4 |
| 20260505063410 | 53 | 124 | 0.0 | 0.0 | 0.00 | 0.00 | 0.00 | 90 | 939.3 |
| 20260505062909 | 53 | 124 | 0.0 | 0.0 | 0.00 | 0.00 | 0.00 | 90 | 939.3 |
| 20260505062413 | 53 | 124 | 0.0 | 0.0 | 0.00 | 0.00 | 0.00 | 89 | 939.3 |
| 20260505061909 | 53 | 124 | 0.0 | 0.0 | 0.00 | 0.00 | 0.00 | 90 | 939.3 |
| 20260505061410 | 53 | 124 | 0.0 | 0.0 | 0.00 | 0.00 | 0.00 | 90 | 939.3 |
| 20260505060411 | 53 | 124 | 0.0 | 0.0 | 0.00 | 0.00 | 0.00 | 90 | 939.3 |
| 20260505055910 | 52 | 124 | 0.0 | 0.0 | 0.00 | 0.00 | 0.00 | 90 | 939.3 |
| 20260505054911 | 52 | 124 | 0.0 | 0.0 | 0.00 | 0.00 | 0.00 | 90 | 939.2 |
| 20260505053910 | 52 | 124 | 0.0 | 0.0 | 0.00 | 0.00 | 0.00 | 90 | 939.0 |
| 20260505053414 | 52 | 124 | 0.0 | 0.0 | 0.00 | 0.00 | 0.00 | 89 | 939.0 |
| 20260505052404 | 52 | 124 | 0.0 | 0.0 | 0.00 | 0.00 | 0.00 | 90 | 939.0 |
| 20260505051909 | 51 | 124 | 0.0 | 0.0 | 0.00 | 0.00 | 0.00 | 90 | 939.0 |
| 20260505051412 | 51 | 124 | 0.0 | 0.0 | 0.00 | 0.00 | 0.00 | 90 | 939.0 |
| 20260505050909 | 51 | 217 | 0.0 | 0.0 | 0.00 | 0.00 | 0.00 | 89 | 939.1 |
| 20260505040908 | 50 | 217 | 0.0 | 0.0 | 0.00 | 0.00 | 0.00 | 88 | 939.2 |
| 20260505035912 | 51 | 218 | 0.0 | 0.0 | 0.00 | 0.00 | 0.00 | 88 | 939.2 |
| 20260505035409 | 50 | 218 | 0.9 | 1.7 | 0.00 | 0.00 | 0.00 | 88 | 939.2 |
| 20260505034910 | 50 | 217 | 0.9 | 2.6 | 0.00 | 0.00 | 0.00 | 87 | 939.2 |
| 20260505034411 | 50 | 216 | 0.0 | 2.6 | 0.00 | 0.00 | 0.00 | 88 | 939.2 |
| 20260505033913 | 50 | 216 | 0.0 | 0.0 | 0.00 | 0.00 | 0.00 | 88 | 939.3 |
| 20260505033409 | 50 | 227 | 0.0 | 0.0 | 0.00 | 0.00 | 0.00 | 88 | 939.3 |
| 20260505032910 | 50 | 225 | 0.0 | 0.0 | 0.00 | 0.00 | 0.00 | 87 | 939.3 |
| 20260505032408 | 50 | 226 | 0.0 | 0.0 | 0.00 | 0.00 | 0.00 | 88 | 939.6 |
| 20260505031911 | 50 | 224 | 0.0 | 0.0 | 0.00 | 0.00 | 0.00 | 88 | 939.6 |
| 20260505030908 | 50 | 225 | 0.0 | 0.0 | 0.00 | 0.00 | 0.00 | 87 | 939.7 |
| 20260505030413 | 51 | 228 | 0.0 | 0.0 | 0.00 | 0.00 | 0.00 | 87 | 939.7 |
| 20260505025910 | 51 | 228 | 0.0 | 0.0 | 0.00 | 0.00 | 0.00 | 87 | 939.7 |
| 20260505025413 | 51 | 227 | 0.0 | 0.0 | 0.00 | 0.00 | 0.00 | 87 | 939.7 |
| 20260505024908 | 51 | 226 | 0.0 | 0.0 | 0.00 | 0.00 | 0.00 | 86 | 939.7 |
| 20260505024408 | 51 | 228 | 0.0 | 0.0 | 0.00 | 0.00 | 0.00 | 87 | 939.7 |
| 20260505023915 | 51 | 227 | 0.0 | 0.0 | 0.00 | 0.00 | 0.00 | 86 | 939.9 |
| 20260505023409 | 51 | 228 | 0.0 | 0.0 | 0.00 | 0.00 | 0.00 | 86 | 939.9 |